Regional Weather Roundup
Issued by NWS

Home | Current Version | Previous Version | Text Only | Print | Product List | Glossary Off
Versions: 1 2 3 4 5 6 7 8 9 10 11 12 13 14 15 16 17 18 19 20 21 22 23 24 25 26 27 28 29 30 31 32 33 34 35 36 37 38 39 40 41 42 43 44 45 46 47 48 49 50

000
ASUS45 KBOU 241507
RWRCO

WEATHER ROUNDUP FOR COLORADO
NATIONAL WEATHER SERVICE DENVER/BOULDER CO
800 AM MST WED DEC 24 2014

NOTE: "FAIR" INDICATES FEW OR NO CLOUDS BELOW 12000 FEET WITH NO
SIGNIFICANT WEATHER AND/OR OBSTRUCTIONS TO VISIBILITY.

COZ001>005-013-030-031-241600-
...NORTHWEST COLORADO...

CITY           SKY/WX    TMP DP  RH WIND       PRES   REMARKS
CRAIG          PTCLDY     2  -2  83 SW5       30.16F WCI  -8
HAYDEN         CLOUDY     9   1  72 SE13      30.13F WCI  -7
MEEKER         PTCLDY     5  -1  76 CALM      30.17F
MOUNT WERNER   NOT AVBL
STEAMBOAT SPGS CLOUDY     3  -1  85 CALM      30.16S
WALDEN         PTCLDY     3  -4  72 SE7       30.06F WCI  -9
$$

COZ006>008-011-241600-
...WEST CENTRAL VALLEYS...

CITY           SKY/WX    TMP DP  RH WIND       PRES   REMARKS
GRAND JUNCTION PTCLDY    19  12  74 S7        30.23F WCI  10
MONTROSE       PTCLDY    14   7  73 SE6       30.25F WCI   5
EAGLE          CLEAR     -2  -6  84 CALM      30.29S
RIFLE          PTCLDY    12   6  77 CALM      30.25F
DELTA          PTCLDY    17   8  70 E5        30.27R WCI  10
NUCLA          PTCLDY    16   9  73 E6        30.24S WCI   7
$$

COZ017>023-064>068-241600-
...SOUTHWEST COLORADO...

CITY           SKY/WX    TMP DP  RH WIND       PRES   REMARKS
DURANGO        CLEAR     12   6  77 CALM      30.15R
CORTEZ         CLEAR     15   8  73 NE8       30.17F WCI   4
PAGOSA SPRINGS CLEAR      6  -2  71 CALM      30.12R
TELLURIDE      PTCLDY    12   2  64 E5        30.12S WCI   4
WOLF CREEK PAS PTCLDY    21   5  49 MISG      30.05R
$$

COZ009-010-012-014-032>034-037-058>063-241600-
...CENTRAL COLORADO...

CITY           SKY/WX    TMP DP  RH WIND       PRES   REMARKS
ASPEN          PTCLDY    -1  -8  72 CALM      30.15S
BUENA VISTA    PTCLDY    15  -3  44 S5        30.02F WCI   7
COPPER MTN     PTCLDY    14   9  79 W21       30.03S WCI  -4
BERTHOUD PASS  NOT AVBL
COTTONWOOD PAS PTCLDY    21  -4  33 S7        29.98S WCI  13
GUNNISON       PTCLDY   -13 -22  64 CALM      30.24S
KREMMLING      MOCLDY    -6  -9  84 CALM      30.21S
LEADVILLE      MOCLDY     6  -3  66 NE12      30.04S WCI  -9
MONARCH PASS   PTCLDY     3  -4  72 MISG      30.08F
SALIDA         PTCLDY    17   2  51 W8        30.10F WCI   7
SUNLIGHT         N/A    N/A N/A N/A MISG      30.09F
WILKERSON PASS PTCLDY    21  10  63 NW17G32   29.96R WCI   7
$$

COZ069>075-241600-
...SAN LUIS VALLEY/SANGRE DE CRISTO MOUNTAINS...

CITY           SKY/WX    TMP DP  RH WIND       PRES   REMARKS
ALAMOSA        MOCLDY     2  -6  69 CALM      30.12R
LA VETA PASS   MOCLDY     5  -4  66 MISG      29.95S
SAGUACHE       PTCLDY     7  -4  61 E8        30.11F WCI  -6
$$

COZ035-036-038>040-241600-
...NORTHERN COLORADO FRONT RANGE...

CITY           SKY/WX    TMP DP  RH WIND       PRES   REMARKS
DENVER INTL AP PTCLDY    26   6  42 SW10      29.85F WCI  16
DMNS CITY PARK   N/A     24   5  44 S7        29.87S WCI  16
AURORA         PTCLDY    23   4  44 S9        29.86F WCI  13
FRONT RANGE AP NOT AVBL
ERIE MUNI ARPT   N/A     13   9  85 CALM      29.88F
BOULDER MUN AP CLEAR     21  12  68 CALM      29.86F
CENTENNIAL     PTCLDY    20   8  60 S7        29.86F WCI  11
BROOMFIELD     PTCLDY    19   9  63 VRB3      29.86F
FORT COLLINS   PTCLDY    12   9  85 CALM      29.89F
LONGMONT       PTCLDY    16   8  72 CALM      29.90F
$$

COZ041-046-047-076>085-087-088-241600-
...PIKES PEAK/PALMER DIVIDE AND SOUTHERN FOOTHILLS...

CITY           SKY/WX    TMP DP  RH WIND       PRES   REMARKS
COLO. SPRINGS  MOCLDY    16   5  62 N6        29.91F WCI   7
A. F. ACADEMY  PTCLDY     6  -1  71 N13       29.90F WCI -10
ELLICOTT       NOT AVBL
FALCON         MOCLDY    19   0  42 W7        29.90F WCI  10
FORT CARSON    MOCLDY    16   4  60 NW8       29.91F WCI   5
LIMON          CLEAR     13   7  77 CALM      29.92F
MONUMENT HILL  PTCLDY    19   1  45 SW8       29.86F WCI   9
TRINIDAD         N/A    N/A N/A N/A MISG      29.97F
$$

COZ042>045-048>051-090-091-241600-
...NORTHEAST COLORADO...

CITY           SKY/WX    TMP DP  RH WIND       PRES   REMARKS
GREELEY ARPT   PTCLDY     9   0  66 NW3       29.89F
AKRON          PTCLDY    21   9  59 SW13      29.88F WCI   9
BURLINGTON     MOCLDY    15   7  70 SW9       29.94S WCI   3
WRAY           PTCLDY    15  10  80 W10       29.93F WCI   2
STERLING       PTCLDY    14  10  85 SW8       29.91F WCI   3
HOLYOKE        PTCLDY    19  12  73 SW7       29.91F WCI  10
FORT MORGAN    PTCLDY    11   5  78 W7        29.90F WCI   0
$$

COZ086-089-092>099-241600-
...SOUTHEAST COLORADO...

CITY           SKY/WX    TMP DP  RH WIND       PRES   REMARKS
PUEBLO         MOCLDY    12   6  77 CALM      29.97F
LA JUNTA       PTCLDY    19  10  68 W9        29.99F WCI   8
LAMAR          CLEAR     20  13  74 W8        29.99F WCI  10
SPRINGFIELD      N/A     21  11  65 W5        30.00F WCI  15
$$



USA.gov is the U.S. government's official web portal to all federal, state and local government web resources and services.